Погода в Мэдисоне

США     43°04′33″N   89°22′53″W
темп.,
°C
ветер,
м/с
пор.,
м/с
влажн.,
%
обл.,
%
осадки,
мм/ч
давл.,
гПа
погр.,
м
21 октября, чт
чт2101:00+12зюз51190100 1.2 1008495
04:00+9зюз61189100 0.0 1009515
07:00+8зюз5891100 0.0 1009422
10:00+8зсз51092100 0.3 1011559
13:00+9с5889100 0.8 1014751
16:00+9ссз4784100 0.1 1015628
19:00+6зсз238579 0.1 101762
22:00+5зсз378699 0.0 1018138
22 октября, пт
пт2201:00+3ссз337485 0.0 101851
04:00+1ссз2276100 0.0 101922
07:00+2ссз2274100 0.0 101926
10:00+5сз2257100 0.0 1019307
13:00+9сз2238100 0.0 1017968
16:00+10сз2334100 0.0 10161199
19:00+5сз11455 0.0 101610
22:00+3сз22515 0.0 101710
23 октября, сб
сб2301:00+2ссз225732 0.0 101712
04:00+1ссз22635 0.0 101711
07:000с22670 0.0 101811
10:00+7ссв23540 0.0 1019358
13:00+10св22405 0.0 10171121
16:00+11всв213847 0.0 10161213
19:00+6в2258100 0.0 101620
22:00+5всв356568 0.0 101789
24 октября, вс
вс2401:00+3в367495 0.0 1017115
04:00+4всв4980100 0.0 1016201
07:00+4всв41176100 0.0 1016275
10:00+7всв61265100 0.0 1016557
13:00+10в71168100 0.3 1014892
16:00+7в91587100 2.4 1012652
19:00+7в81687100 3.0 1011743
22:00+7в81793100 4.5 1010838
25 октября, пн
пн2501:00+8в91692100 5.5 1009857
04:00+8в81594100 1.6 1008745
07:00+9св51195100 3.9 1010823
10:00+8всв81492100 0.9 1013835
13:00+9всв6984100 1.1 1015965
16:00+8св61089100 0.1 1017870
19:00+7всв51088100 0.1 1019632
22:00+7всв4987100 0.0 1020544